CARTOSAT-2F

Last updated on Mon Oct 14 2024 00:02:25 GMT+0000 (Coordinated Universal Time)

1 43111U 18004A 24287.46391653 .00011487 00000+0 54755-3 0 9992 2 43111 97.4176 344.9622 0001504 279.4278 80.6786 15.19263919374459
UTC large
Height (km)
Speed (km/s)
/
Latitude / Longitude
Inclination (degrees)
Orbital Period (minutes)
Azimuth
Elevation
Range (km)
Doppler Factor

Next 0 passes for location: London (51.5072 / 0.1276)

Sorry there are no passes over London.